GW1288 Weather Reports


time (UTC)temp
F
wind
direction
speed
knots
gust
knots
rain 1hr
in
rain 24hr
in
rain mn
in
humidity
%
barometer
mb
20220927011739 82 164 0.0 0.0 0.00 0.00 0.00 32 1018.5
20220927011239 82 164 0.0 0.0 0.00 0.00 0.00 32 1018.3
20220927010738 83 162 0.0 0.0 0.00 0.00 0.00 31 1018.3
20220927010237 83 164 0.0 0.0 0.00 0.00 0.00 31 1018.2
20220927005737 83 161 0.0 0.0 0.00 0.00 0.00 31 1017.9
20220927005235 84 164 0.0 0.0 0.00 0.00 0.00 31 1018.2
20220927004733 84 161 0.0 0.0 0.00 0.00 0.00 30 1018.0
20220927004233 84 159 0.0 0.0 0.00 0.00 0.00 30 1017.8
20220927003733 84 161 0.0 0.0 0.00 0.00 0.00 30 1017.8
20220927003233 85 158 0.0 0.0 0.00 0.00 0.00 30 1017.8
20220927002733 86 157 0.0 0.0 0.00 0.00 0.00 29 1017.5
20220927002232 86 172 0.0 0.0 0.00 0.00 0.00 29 1017.5
20220927001730 87 168 0.0 0.0 0.00 0.00 0.00 28 1017.6
20220927001230 88 168 0.0 0.0 0.00 0.00 0.00 28 1017.6
20220927000730 88 159 0.0 0.0 0.00 0.00 0.00 27 1017.7
20220927000229 89 170 0.0 0.0 0.00 0.00 0.00 27 1017.6
20220926235729 89 165 0.0 0.0 0.00 0.00 0.00 28 1017.6
20220926235228 89 136 0.0 0.9 0.00 0.00 0.00 28 1017.6
20220926234727 90 176 0.0 0.0 0.00 0.00 0.00 28 1017.6
20220926234226 90 152 0.0 0.0 0.00 0.00 0.00 28 1017.5
20220926233725 91 160 0.0 0.0 0.00 0.00 0.00 27 1017.4
20220926233223 91 194 0.0 0.0 0.00 0.00 0.00 27 1017.3
20220926232722 92 164 0.0 0.0 0.00 0.00 0.00 27 1017.2
20220926232221 92 159 0.0 0.0 0.00 0.00 0.00 27 1017.2
20220926231721 92 163 0.0 0.0 0.00 0.00 0.00 28 1017.3
20220926231219 93 160 0.0 0.0 0.00 0.00 0.00 27 1017.4
20220926230718 93 176 0.0 0.0 0.00 0.00 0.00 27 1017.3
20220926230218 93 160 0.0 0.0 0.00 0.00 0.00 27 1017.2
20220926225716 93 308 0.0 0.0 0.00 0.00 0.00 27 1017.2
20220926225215 94 206 0.9 2.6 0.00 0.00 0.00 27 1017.1
20220926224655 94 202 0.9 1.7 0.00 0.00 0.00 27 1017.0
20220926224155 93 196 0.0 0.0 0.00 0.00 0.00 28 1017.2
20220926223654 95 169 0.0 0.0 0.00 0.00 0.00 27 1017.1
20220926223153 95 83 0.9 2.6 0.00 0.00 0.00 27 1017.2
20220926222652 94 163 0.0 0.9 0.00 0.00 0.00 28 1017.0
20220926222152 95 162 0.0 0.0 0.00 0.00 0.00 28 1017.1
20220926221652 95 172 0.0 0.9 0.00 0.00 0.00 28 1017.1
20220926221150 96 155 0.0 0.0 0.00 0.00 0.00 27 1017.1
20220926220650 95 265 0.0 0.9 0.00 0.00 0.00 27 1017.2
20220926220147 96 106 0.0 0.0 0.00 0.00 0.00 27 1017.1
20220926215646 96 180 0.0 0.0 0.00 0.00 0.00 28 1017.2
20220926215144 95 152 0.0 0.9 0.00 0.00 0.00 27 1017.0
20220926214643 96 146 0.0 0.0 0.00 0.00 0.00 26 1017.2
20220926214142 96 127 0.0 0.0 0.00 0.00 0.00 26 1017.3
20220926213642 96 135 0.9 1.7 0.00 0.00 0.00 27 1017.2
20220926213141 95 138 0.0 0.0 0.00 0.00 0.00 28 1017.1
20220926212640 94 122 0.0 0.0 0.00 0.00 0.00 29 1017.5
20220926212140 96 149 0.0 0.0 0.00 0.00 0.00 28 1017.3
20220926211640 96 155 0.0 0.0 0.00 0.00 0.00 28 1017.2
20220926211138 96 142 0.0 0.0 0.00 0.00 0.00 28 1017.3
20220926210637 96 149 0.0 0.9 0.00 0.00 0.00 29 1017.4
20220926210136 96 65 0.0 0.9 0.00 0.00 0.00 28 1017.3
20220926205636 96 42 0.0 0.0 0.00 0.00 0.00 30 1017.4
20220926205134 95 61 0.0 0.9 0.00 0.00 0.00 28 1017.4
20220926204634 95 204 0.9 2.6 0.00 0.00 0.00 29 1017.4
20220926204131 96 186 1.7 4.3 0.00 0.00 0.00 28 1017.4
20220926203631 96 145 0.0 0.0 0.00 0.00 0.00 29 1017.4
20220926203131 97 150 0.9 2.6 0.00 0.00 0.00 26 1017.7
20220926202631 97 162 0.9 0.9 0.00 0.00 0.00 26 1017.5
20220926202130 97 29 0.0 0.0 0.00 0.00 0.00 26 1017.4
20220926201630 97 144 0.0 1.7 0.00 0.00 0.00 27 1017.8
20220926201130 96 145 0.9 0.9 0.00 0.00 0.00 27 1017.9
20220926200627 96 199 0.0 0.9 0.00 0.00 0.00 28 1017.9
20220926200126 95 152 0.0 0.9 0.00 0.00 0.00 29 1017.8
20220926195625 96 163 3.5 5.2 0.00 0.00 0.00 28 1018.3
20220926195124 96 171 4.3 6.1 0.00 0.00 0.00 28 1018.2
20220926194623 95 123 0.0 0.0 0.00 0.00 0.00 28 1017.8
20220926194122 96 185 0.0 0.0 0.00 0.00 0.00 28 1018.3
20220926193622 96 148 0.0 0.0 0.00 0.00 0.00 28 1018.5
20220926193121 96 329 0.9 1.7 0.00 0.00 0.00 27 1018.6
20220926192621 95 251 0.0 0.0 0.00 0.00 0.00 28 1018.6
20220926192119 95 147 0.0 0.0 0.00 0.00 0.00 29 1018.7
20220926191617 94 235 0.0 0.0 0.00 0.00 0.00 29 1018.9
20220926191117 95 150 0.0 0.9 0.00 0.00 0.00 28 1019.0
20220926190617 94 299 0.0 0.9 0.00 0.00 0.00 28 1018.9
20220926190116 94 158 0.0 0.9 0.00 0.00 0.00 28 1019.3
20220926185616 94 173 0.0 0.0 0.00 0.00 0.00 28 1019.1
20220926185114 94 116 0.0 0.0 0.00 0.00 0.00 29 1019.3
20220926184614 94 118 0.0 1.7 0.00 0.00 0.00 29 1019.4
20220926184113 94 61 0.0 0.0 0.00 0.00 0.00 29 1019.3
20220926183613 94 172 0.9 1.7 0.00 0.00 0.00 30 1019.4
20220926183112 94 288 0.9 4.3 0.00 0.00 0.00 29 1019.6
20220926182612 93 137 0.0 0.0 0.00 0.00 0.00 30 1019.8
20220926182112 93 145 0.0 0.9 0.00 0.00 0.00 31 1019.6
20220926181612 93 223 2.6 6.1 0.00 0.00 0.00 29 1019.9
20220926181111 93 147 0.9 1.7 0.00 0.00 0.00 29 1019.6
20220926180610 93 133 0.0 0.0 0.00 0.00 0.00 30 1020.0
20220926180106 93 134 0.0 0.0 0.00 0.00 0.00 31 1020.0
20220926175606 92 126 0.0 0.0 0.00 0.00 0.00 30 1020.0
20220926175105 92 210 0.0 0.0 0.00 0.00 0.00 30 1019.9
20220926174604 92 35 0.9 2.6 0.00 0.00 0.00 30 1020.0
20220926174102 92 130 1.7 5.2 0.00 0.00 0.00 31 1020.1
20220926173602 92 130 0.0 0.0 0.00 0.00 0.00 30 1020.3
20220926173100 91 150 0.0 2.6 0.00 0.00 0.00 32 1020.2
20220926172558 91 122 0.9 0.9 0.00 0.00 0.00 32 1020.3
20220926172057 91 128 0.9 1.7 0.00 0.00 0.00 31 1020.6
20220926171557 91 349 0.9 1.7 0.00 0.00 0.00 31 1020.4
20220926171057 91 272 1.7 4.3 0.00 0.00 0.00 31 1020.4
20220926170555 91 143 0.0 0.0 0.00 0.00 0.00 31 1020.6
20220926170055 90 121 0.0 0.0 0.00 0.00 0.00 32 1020.5
20220926165554 90 133 0.0 2.6 0.00 0.00 0.00 32 1020.5
20220926165054 90 172 0.0 1.7 0.00 0.00 0.00 32 1020.7
20220926164553 89 85 0.0 0.0 0.00 0.00 0.00 34 1020.6
20220926164051 89 168 0.0 0.0 0.00 0.00 0.00 33 1020.5
20220926163550 89 140 0.0 0.0 0.00 0.00 0.00 34 1020.7
20220926163048 88 181 0.0 0.0 0.00 0.00 0.00 34 1020.7
20220926162547 88 88 0.0 0.0 0.00 0.00 0.00 34 1020.8
20220926162046 88 124 0.0 0.0 0.00 0.00 0.00 35 1020.7
20220926161546 88 132 0.0 0.0 0.00 0.00 0.00 34 1020.7
20220926161045 87 33 0.0 0.0 0.00 0.00 0.00 35 1020.9
20220926160544 87 204 0.9 1.7 0.00 0.00 0.00 35 1020.9
20220926160043 87 204 0.0 0.9 0.00 0.00 0.00 35 1021.0
20220926155542 87 147 0.9 1.7 0.00 0.00 0.00 35 1020.8
20220926155040 87 57 0.0 0.9 0.00 0.00 0.00 35 1020.7
20220926154538 86 120 0.0 0.0 0.00 0.00 0.00 37 1020.9
20220926154038 85 109 0.0 0.0 0.00 0.00 0.00 38 1020.6
20220926153536 85 146 0.0 0.9 0.00 0.00 0.00 37 1020.5
20220926153034 85 81 0.9 2.6 0.00 0.00 0.00 37 1020.5
20220926152533 84 169 0.0 0.0 0.00 0.00 0.00 37 1020.8
20220926152031 85 191 0.0 0.0 0.00 0.00 0.00 38 1020.7
20220926151531 84 123 0.0 0.0 0.00 0.00 0.00 40 1020.5
20220926151031 83 144 0.0 0.9 0.00 0.00 0.00 39 1020.4
20220926150531 83 124 0.0 0.0 0.00 0.00 0.00 41 1020.2
20220926150030 82 167 0.0 0.9 0.00 0.00 0.00 41 1020.4
20220926145528 82 121 0.0 0.9 0.00 0.00 0.00 41 1020.3
20220926145027 82 130 0.0 0.0 0.00 0.00 0.00 43 1020.2
20220926144525 81 138 0.0 0.0 0.00 0.00 0.00 44 1020.1
20220926144024 81 7 0.0 1.7 0.00 0.00 0.00 45 1019.9
20220926143522 81 87 0.0 0.0 0.00 0.00 0.00 46 1020.2
20220926143021 80 79 0.0 0.0 0.00 0.00 0.00 48 1020.1
20220926142520 80 148 0.0 0.0 0.00 0.00 0.00 49 1020.0
20220926142018 80 147 0.0 0.0 0.00 0.00 0.00 50 1019.8
20220926141517 80 97 0.0 0.9 0.00 0.00 0.00 53 1019.7
20220926141016 79 99 0.0 0.0 0.00 0.00 0.00 54 1019.9
20220926140516 79 109 0.0 0.9 0.00 0.00 0.00 55 1019.9
20220926140015 79 67 0.9 2.6 0.00 0.00 0.00 55 1019.8
20220926135514 78 22 0.9 2.6 0.00 0.00 0.00 56 1019.6
20220926135013 77 36 0.0 0.0 0.00 0.00 0.00 58 1019.4
20220926134513 77 71 0.9 0.9 0.00 0.00 0.00 59 1019.7
20220926134012 77 151 0.0 0.0 0.00 0.00 0.00 62 1019.5
20220926133511 77 85 0.0 0.0 0.00 0.00 0.00 64 1019.5
20220926133009 76 112 0.0 0.0 0.00 0.00 0.00 65 1019.5
20220926132508 76 103 1.7 4.3 0.00 0.00 0.00 66 1019.5
20220926132009 75 43 1.7 2.6 0.00 0.00 0.00 68 1019.6
20220926131508 75 148 0.0 0.9 0.00 0.00 0.00 69 1019.3
20220926131008 73 173 1.7 4.3 0.00 0.00 0.00 73 1019.5
20220926130508 72 181 0.0 0.0 0.00 0.00 0.00 77 1019.5
20220926130008 72 200 1.7 2.6 0.00 0.00 0.00 79 1019.3
20220926125508 71 176 0.0 0.9 0.00 0.00 0.00 82 1019.1
20220926125008 71 180 0.9 1.7 0.00 0.00 0.00 83 1019.2
20220926124508 71 245 2.6 4.3 0.00 0.00 0.00 83 1019.2
20220926124007 71 231 2.6 2.6 0.00 0.00 0.00 83 1019.0
20220926123507 71 206 1.7 2.6 0.00 0.00 0.00 83 1019.2
20220926123005 71 247 2.6 4.3 0.00 0.00 0.00 84 1018.9
20220926122503 71 234 3.5 5.2 0.00 0.00 0.00 84 1018.9
20220926122001 71 167 2.6 2.6 0.00 0.00 0.00 84 1018.9
20220926121502 71 233 1.7 4.3 0.00 0.00 0.00 84 1018.6
20220926121001 71 227 0.9 2.6 0.00 0.00 0.00 84 1018.6
20220926120500 71 189 0.9 1.7 0.00 0.00 0.00 84 1018.6
20220926120000 71 218 1.7 1.7 0.00 0.00 0.00 84 1018.5
20220926115459 71 251 0.9 0.9 0.00 0.00 0.00 85 1018.7
20220926114959 71 217 2.6 4.3 0.00 0.00 0.00 85 1018.4
20220926114457 71 144 0.9 1.7 0.00 0.00 0.00 86 1018.5
20220926113956 71 186 0.9 1.7 0.00 0.00 0.00 86 1018.4
20220926113456 71 165 0.0 0.0 0.00 0.00 0.00 87 1018.5
20220926112954 71 229 1.7 1.7 0.00 0.00 0.00 87 1018.6
20220926112454 71 161 0.0 0.0 0.00 0.00 0.00 88 1018.5
20220926111953 71 226 0.9 1.7 0.00 0.00 0.00 88 1018.2
20220926111453 71 221 2.6 4.3 0.00 0.00 0.00 88 1018.2
20220926110951 71 244 2.6 5.2 0.00 0.00 0.00 89 1017.9
20220926110451 71 163 0.9 1.7 0.00 0.00 0.00 89 1018.0
20220926105950 71 163 0.0 0.0 0.00 0.00 0.00 89 1018.2
20220926105450 71 197 1.7 1.7 0.00 0.00 0.00 89 1017.9
20220926104949 71 159 0.9 1.7 0.00 0.00 0.00 90 1017.8
20220926104448 71 235 0.9 2.6 0.00 0.00 0.00 90 1018.0
20220926103947 71 236 1.7 2.6 0.00 0.00 0.00 90 1017.7
20220926103445 70 209 1.7 1.7 0.00 0.00 0.00 89 1017.9
20220926102943 70 193 0.9 0.9 0.00 0.00 0.00 89 1017.8
20220926102443 70 195 1.7 1.7 0.00 0.00 0.00 89 1017.9
20220926101941 70 236 2.6 4.3 0.00 0.00 0.00 89 1017.8
20220926101440 70 194 1.7 1.7 0.00 0.00 0.00 89 1017.6
20220926100939 70 149 2.6 4.3 0.00 0.00 0.00 89 1017.7
20220926100439 70 186 1.7 2.6 0.00 0.00 0.00 88 1017.7
20220926095939 70 251 3.5 5.2 0.00 0.00 0.00 88 1017.5
20220926095437 71 253 1.7 1.7 0.00 0.00 0.00 88 1017.1
20220926094937 71 186 0.9 1.7 0.00 0.00 0.00 88 1017.3
20220926094437 71 252 2.6 2.6 0.00 0.00 0.00 88 1017.3
20220926093936 71 207 1.7 1.7 0.00 0.00 0.00 88 1017.4
20220926093436 71 175 0.9 1.7 0.00 0.00 0.00 88 1017.3
20220926092936 71 244 0.9 1.7 0.00 0.00 0.00 87 1017.2
20220926092436 71 195 0.0 0.0 0.00 0.00 0.00 87 1017.1
20220926091934 71 160 0.0 0.0 0.00 0.00 0.00 87 1017.4
20220926091433 71 166 0.9 0.9 0.00 0.00 0.00 86 1017.2
20220926090932 71 217 1.7 1.7 0.00 0.00 0.00 86 1017.2
20220926090432 71 260 1.7 1.7 0.00 0.00 0.00 85 1017.5
20220926085930 71 168 0.9 1.7 0.00 0.00 0.00 85 1017.0
20220926085428 72 159 0.0 0.0 0.00 0.00 0.00 84 1017.3
20220926084927 72 196 0.0 0.0 0.00 0.00 0.00 84 1017.3
20220926084426 73 171 0.0 0.0 0.00 0.00 0.00 83 1017.3
20220926083926 74 167 0.0 0.0 0.00 0.00 0.00 83 1017.1
20220926083424 75 173 0.0 0.0 0.00 0.00 0.00 83 1017.2
20220926082923 75 166 0.0 0.0 0.00 0.00 0.00 83 1017.2
20220926082422 75 160 0.0 0.0 0.00 0.00 0.00 83 1017.2
20220926081921 75 155 0.0 0.0 0.00 0.00 0.00 83 1017.3
20220926081421 75 165 0.0 0.0 0.00 0.00 0.00 82 1017.2
20220926080921 75 174 0.0 0.0 0.00 0.00 0.00 81 1017.4
20220926080420 76 161 0.0 0.0 0.00 0.00 0.00 81 1017.2
20220926075919 76 155 0.0 0.0 0.00 0.00 0.00 81 1017.1
20220926075418 76 153 0.0 0.0 0.00 0.00 0.00 80 1017.4
20220926074916 76 183 0.0 0.0 0.00 0.00 0.00 80 1017.4
20220926074416 76 176 0.0 0.0 0.00 0.00 0.00 80 1017.4
20220926073915 76 182 0.0 0.0 0.00 0.00 0.00 80 1017.6
20220926073415 75 201 0.9 0.9 0.00 0.00 0.00 79 1017.5
20220926072915 77 211 0.0 0.0 0.00 0.00 0.00 77 1017.6
20220926072413 77 176 0.0 0.0 0.00 0.00 0.00 77 1017.5
20220926071912 77 165 0.0 0.0 0.00 0.00 0.00 77 1017.4
20220926071410 77 166 0.0 0.0 0.00 0.00 0.00 77 1017.5
20220926070909 77 165 0.0 0.0 0.00 0.00 0.00 77 1017.5
20220926070407 77 149 0.0 0.0 0.00 0.00 0.00 77 1017.7
20220926065906 77 156 0.0 0.0 0.00 0.00 0.00 77 1017.4
20220926065404 77 158 0.0 0.0 0.00 0.00 0.00 77 1017.5
20220926064903 77 145 0.0 0.0 0.00 0.00 0.00 77 1017.4
20220926064402 77 146 0.0 0.9 0.00 0.00 0.00 77 1017.4
20220926063901 77 147 0.0 0.9 0.00 0.00 0.00 77 1017.5
20220926063400 77 135 0.0 0.9 0.00 0.00 0.00 76 1017.6
20220926062858 78 134 0.0 0.9 0.00 0.00 0.00 76 1017.4
20220926062358 78 96 0.9 1.7 0.00 0.00 0.00 76 1017.4
20220926061856 78 100 1.7 1.7 0.00 0.00 0.00 76 1017.6
20220926061355 78 111 1.7 1.7 0.00 0.00 0.00 76 1017.5
20220926060855 78 116 1.7 1.7 0.00 0.00 0.00 75 1017.9
20220926060354 78 125 1.7 2.6 0.00 0.00 0.00 75 1017.8
20220926055854 78 118 0.0 0.0 0.00 0.00 0.00 75 1017.5
20220926055352 78 117 0.9 1.7 0.00 0.00 0.00 76 1017.6
20220926054850 78 140 0.0 0.0 0.00 0.00 0.00 76 1017.6
20220926054348 78 155 0.0 0.0 0.00 0.00 0.00 76 1017.6
20220926053847 78 145 0.0 0.0 0.00 0.00 0.00 76 1017.7
20220926053347 78 129 0.0 0.0 0.00 0.00 0.00 76 1017.6
20220926052846 78 131 0.0 0.0 0.00 0.00 0.00 76 1017.7
20220926052346 78 142 0.0 0.0 0.00 0.00 0.00 76 1017.7
20220926051846 79 123 0.0 0.0 0.00 0.00 0.00 76 1017.8
20220926051344 79 130 0.0 0.9 0.00 0.00 0.00 75 1017.9
20220926050843 79 104 1.7 2.6 0.00 0.00 0.00 75 1017.7
20220926050343 79 94 0.9 1.7 0.00 0.00 0.00 75 1017.9
20220926045844 79 87 2.6 2.6 0.00 0.00 0.00 75 1018.2
20220926045342 79 124 1.7 1.7 0.00 0.00 0.00 75 1017.9
20220926044840 79 117 1.7 1.7 0.00 0.00 0.00 75 1017.9
20220926044339 79 71 1.7 1.7 0.00 0.00 0.00 74 1017.8
20220926043837 80 89 1.7 1.7 0.00 0.00 0.00 74 1017.9
20220926043336 80 97 1.7 1.7 0.00 0.00 0.00 73 1017.8
20220926042835 80 75 3.5 4.3 0.00 0.00 0.00 73 1017.9
20220926042335 80 120 0.0 0.0 0.00 0.00 0.00 73 1017.8
20220926041834 80 105 1.7 1.7 0.00 0.00 0.00 72 1017.4
20220926041332 80 107 1.7 1.7 0.00 0.00 0.00 71 1017.8
20220926040832 81 90 1.7 2.6 0.00 0.00 0.00 70 1017.8
20220926040332 81 82 0.0 0.9 0.00 0.00 0.00 69 1017.5
20220926035832 81 78 0.0 0.0 0.00 0.00 0.00 68 1017.5
20220926035332 81 81 0.9 1.7 0.00 0.00 0.00 68 1017.5
20220926034831 82 107 1.7 1.7 0.00 0.00 0.00 67 1017.4
20220926034331 82 38 0.0 0.9 0.00 0.00 0.00 67 1017.5
20220926033830 82 74 2.6 2.6 0.00 0.00 0.00 67 1017.5
20220926033330 82 53 1.7 2.6 0.00 0.00 0.00 67 1017.5
20220926032828 82 85 0.0 0.0 0.00 0.00 0.00 67 1017.3
20220926032327 82 77 2.6 2.6 0.00 0.00 0.00 67 1017.3
20220926031827 82 75 1.7 2.6 0.00 0.00 0.00 67 1017.3
20220926031326 82 61 0.0 0.0 0.00 0.00 0.00 67 1017.3
20220926030825 82 119 0.9 1.7 0.00 0.00 0.00 66 1017.2
20220926030323 83 83 0.0 0.0 0.00 0.00 0.00 66 1017.2
20220926025821 82 113 0.0 0.0 0.00 0.00 0.00 66 1017.2
20220926025321 83 125 0.0 0.0 0.00 0.00 0.00 66 1017.0
20220926024819 83 81 0.0 0.0 0.00 0.00 0.00 66 1016.9
20220926024318 83 83 0.0 0.0 0.00 0.00 0.00 65 1016.9
20220926023816 84 101 0.0 0.9 0.00 0.00 0.00 65 1017.0
20220926023314 84 150 0.0 0.0 0.00 0.00 0.00 64 1016.5
20220926022813 84 87 0.0 0.0 0.00 0.00 0.00 64 1016.6
20220926022313 84 99 0.0 0.0 0.00 0.00 0.00 64 1016.7
20220926021812 84 110 0.0 0.0 0.00 0.00 0.00 64 1016.7
20220926021311 84 101 0.0 0.0 0.00 0.00 0.00 64 1016.3
20220926020809 84 109 0.0 0.0 0.00 0.00 0.00 63 1016.3
20220926020309 84 117 0.0 0.0 0.00 0.00 0.00 63 1016.2
20220926015807 84 122 0.0 0.0 0.00 0.00 0.00 63 1016.1
20220926015308 84 81 0.0 0.0 0.00 0.00 0.00 63 1016.1
20220926014806 84 39 0.0 0.9 0.00 0.00 0.00 62 1015.8
20220926014305 84 56 0.0 0.0 0.00 0.00 0.00 62 1016.0
20220926013805 84 114 0.0 0.0 0.00 0.00 0.00 62 1015.7
20220926013304 85 121 0.0 1.7 0.00 0.00 0.00 61 1015.7
20220926012804 85 87 0.0 0.0 0.00 0.00 0.00 61 1015.8
20220926012305 85 24 0.9 2.6 0.00 0.00 0.00 60 1015.6